sat.trackr.live / text

‹ back to catalog

STARLINK-11142 [DTC]

NORAD 59957 · 2024-107N

PAYLOAD ACTIVE UNKNOWN

§ Identity

Operator
Country
US
Launch date
2024-06-05
Launch site
AFETR
Launch vehicle
Mass (kg)
RCS (m²)

Purposes: comms

External: N2YO · Heavens-Above · Gunter

§ Orbital elements

Epoch: 2026-09-21T17:59:15.110016Z

Period
91.74 min
Inclination
53.1592°
Eccentricity
0.0000889
Mean motion
15.69694789 rev/d
Perigee alt
359.2 km
Apogee alt
360.4 km
Semi-major
6,737.9 km
B*
9.7874e-5
RAAN
4.4453°
Arg perigee
39.4657°
Mean anomaly
320.6425°
Rev number
13,295

§ Raw data

STARLINK-11142 [DTC]1 59957U 24107N   26264.74948044  .00011278  00000+0  97874-4 0  99962 59957  53.1592   4.4453 0000889  39.4657 320.6425 15.69694789132957

JSON: /api/v1/satellites/59957 · /tle

For live sub-satellite position, see the globe view (requires WebGL).

§ Visibility from observer

Set your observer location to see the next 7 days of passes ≥ 10°. The values pass through the URL so the page stays shareable.

No JS? Fill the form by hand. The geolocation button needs JavaScript.